Regional Weather Roundup
Issued by NWS

Home | Current Version | Previous Version | Graphics & Text | Print | Product List | Glossary On
Versions: 1 2 3 4 5 6 7 8 9 10 11 12 13 14 15 16 17 18 19 20 21 22 23 24 25 26 27 28 29 30 31 32 33 34 35 36 37 38 39 40 41 42 43 44 45 46 47 48 49 50
000
ASUS43 KLSX 221207
RWRMO

WEATHER SUMMARY FOR MISSOURI
NATIONAL WEATHER SERVICE SPRINGFIELD MO
700 AM CDT WED OCT 22 2014

NOTE: "FAIR" INDICATES FEW OR NO CLOUDS BELOW 12,000 FEET WITH NO
       SIGNIFICANT WEATHER AND/OR OBSTRUCTIONS TO VISIBILITY.
       CURRENT SKY AND/OR WEATHER CONDITIONS ARE NOT AVAILABLE FOR
       CHILLICOTHE AND FARMINGTON.

MOZ001>031-035>038-043-044-053-054-221300-
...NORTHERN AND WESTERN MISSOURI...

CITY           SKY/WX    TMP DP  RH WIND       PRES   REMARKS
KANSAS CTY INT MOCLDY    54  46  74 SE12      30.17R
6HR MIN TEMP:  53; 6HR MAX TEMP:  56;

KANSAS C DTWN  PTCLDY    56  45  66 E6        30.18R
6HR MIN TEMP:  56; 6HR MAX TEMP:  59;

LEE`S SUMMIT   MOCLDY    52  45  77 SE6       30.20R
6HR MIN TEMP:  52; 6HR MAX TEMP:  56;

ST JOSEPH      CLOUDY    55  46  71 SE12      30.17R
6HR MIN TEMP:  54; 6HR MAX TEMP:  57;

CHILLICOTHE      N/A     46  40  79 SE6       30.25R
6HR MIN TEMP:  46; 6HR MAX TEMP:  52;

KIRKSVILLE     CLEAR     40  39  97 E8        30.27R
6HR MIN TEMP:  40; 6HR MAX TEMP:  46;


$$
MOZ066>068-077>081-088>096-101>105-221300-
...SOUTHWEST MISSOURI...

CITY           SKY/WX    TMP DP  RH WIND       PRES   REMARKS
SPRINGFIELD    CLEAR     51  44  77 SE14      30.19R
6HR MIN TEMP:  51; 6HR MAX TEMP:  55;

JOPLIN         PTCLDY    53  47  79 SE3       30.17R
6HR MIN TEMP:  53; 6HR MAX TEMP:  56;


$$
MOZ032>034-039>042-045>050-055>058-069>072-221300-
...CENTRAL MISSOURI...

CITY           SKY/WX    TMP DP  RH WIND       PRES   REMARKS
COLUMBIA       CLEAR     44  40  85 E7        30.26R
6HR MIN TEMP:  44; 6HR MAX TEMP:  49;

JEFFERSON CITY CLEAR     45  41  86 E5        30.26R
6HR MIN TEMP:  43; 6HR MAX TEMP:  49;

ROLLA          CLEAR     42  39  89 E8        30.23R
6HR MIN TEMP:  42; 6HR MAX TEMP:  49;

SEDALIA        CLEAR     46  42  86 SE5       30.23R
6HR MIN TEMP:  46; 6HR MAX TEMP:  52;

WHITEMAN AFB   CLEAR     45  42  90 SE6       30.21R
OSAGE BEACH    CLEAR     45  39  81 E5        30.23R

$$
MOZ051-052-059>065-221300-
...EAST CENTRAL MISSOURI...

CITY           SKY/WX    TMP DP  RH WIND       PRES   REMARKS
ST LOUIS INTL  CLEAR     43  38  82 CALM      30.30R
6HR MIN TEMP:  43; 6HR MAX TEMP:  50;

SPIRIT OF STL  CLEAR     37  36  96 CALM      30.29R
6HR MIN TEMP:  37; 6HR MAX TEMP:  47;

ST CHARLES     CLEAR     41  38  89 CALM      30.30R
6HR MIN TEMP:  39; 6HR MAX TEMP:  47;


$$
MOZ072>076-082>087-097>100-106>115-221300-
...SOUTH CENTRAL AND SOUTHEAST MISSOURI...

CITY           SKY/WX    TMP DP  RH WIND       PRES   REMARKS
CAPE GIRARDEAU CLEAR     38  37  97 CALM      30.27R FOG
6HR MIN TEMP:  38; 6HR MAX TEMP:  49;

FARMINGTON     CLEAR     37  37 100 CALM      30.28R
6HR MIN TEMP:  37; 6HR MAX TEMP:  45;

POPLAR BLUFF   CLEAR     45  40  82 NE7       30.24R
6HR MIN TEMP:  45; 6HR MAX TEMP:  51;

WEST PLAINS    CLEAR     45  40  82 E5        30.24S
6HR MIN TEMP:  44; 6HR MAX TEMP:  51;


$$



USA.gov is the U.S. government's official web portal to all federal, state and local government web resources and services.